Weather History for Banff, AB

Change the Weather History Date:

Wednesday, July 10, 2013

  Actual Average Record
Temperature  
Mean Temperature 60 °F -  
Max Temperature 78 °F - - ()
Min Temperature 42 °F - - ()
Degree Days  
Heating Degree Days 5    
Growing Degree Days 10 (Base 50)    
Moisture  
Dew Point 41 °F    
Average Humidity 50    
Maximum Humidity 95    
Minimum Humidity 21    
Precipitation  
Precipitation 0.00 in - - ()
Sea Level Pressure  
Sea Level Pressure 29.88 in    
Wind  
Wind Speed 3 mph ()    
Max Wind Speed 10 mph    
Max Gust Speed 23 mph    
T = Trace of Precipitation, MM = Missing Value Source: Averaged Metar Reports

Daily Weather History Graph

Daily Weather History Graph

Search for Another Location

Airport:

Trip Planner

Search our weather history database for the weather conditions in past years. The results will help you decide how hot, cold, wet, or windy it might be!

Date:

Astronomy

Jul. 10, 2013 Rise Set
Actual Time 5:39 AM MDT 9:55 PM MDT
Civil Twilight 4:54 AM MDT 10:40 PM MDT
Nautical Twilight 3:47 AM MDT 11:46 PM MDT
Astronomical Twilight 2:20 AM MDT 1:15 AM MDT
Moon 8:27 AM MDT (7/10) 10:40 PM MDT (7/10)
Length of Visible Light 17h 46m
Length of Day
16h 16m
Waxing Crescent, 5% of the Moon is Illuminated
Jul 10
Waxing Crescent
Jul 15
First Quarter
Jul 22
Full
Jul 29
Last Quarter
Aug 6
New

Hourly Weather History & Observations

Time (MDT) Temp. Dew Point Humidity Pressure Visibility Wind Dir Wind Speed Gust Speed Precip Events Conditions
12:00 AM 57.0 °F 42.8 °F 59% 30.01 in - SSW 2.3 mph - N/A   Unknown
1:00 AM 54.3 °F 42.6 °F 65% 30.03 in - NNW 1.2 mph - N/A   Unknown
2:00 AM 48.9 °F 43.3 °F 81% 30.03 in - Calm Calm - N/A   Unknown
3:00 AM 47.1 °F 43.3 °F 87% 30.04 in - NNE 1.2 mph - N/A   Unknown
4:00 AM 46.4 °F 42.6 °F 87% 30.04 in - Calm Calm - N/A   Unknown
5:00 AM 44.1 °F 41.9 °F 92% 30.04 in - Calm Calm - N/A   Unknown
6:00 AM 42.6 °F 41.4 °F 95% 30.05 in - NE 1.2 mph - N/A   Unknown
7:00 AM 50.0 °F 44.1 °F 80% 30.02 in - West 2.3 mph - N/A   Unknown
8:00 AM 54.1 °F 43.5 °F 67% 30.01 in - SW 6.9 mph - N/A   Unknown
9:00 AM 59.0 °F 44.4 °F 58% 29.97 in - SW 8.1 mph - N/A   Unknown
10:00 AM 64.9 °F 46.6 °F 51% 29.94 in - SW 5.8 mph - N/A   Unknown
11:00 AM 71.2 °F 45.3 °F 39% 29.91 in - WSW 4.6 mph - N/A   Unknown
12:00 PM 72.1 °F 40.6 °F 32% 29.88 in - WSW 8.1 mph - N/A   Unknown
1:00 PM 73.6 °F 39.6 °F 29% 29.88 in - SW 8.1 mph - N/A   Unknown
2:00 PM 73.4 °F 38.7 °F 28% 29.86 in - WSW 8.1 mph 21.9 mph N/A   Unknown
3:00 PM 75.2 °F 36.7 °F 25% 29.82 in - SW 9.2 mph 18.4 mph N/A   Unknown
4:00 PM 75.7 °F 36.1 °F 24% 29.80 in - WSW 8.1 mph - N/A   Unknown
5:00 PM 78.4 °F 35.8 °F 21% 29.77 in - WSW 8.1 mph - N/A   Unknown
6:00 PM 78.6 °F 35.8 °F 21% 29.73 in - WSW 6.9 mph - N/A   Unknown
7:00 PM 77.5 °F 35.6 °F 22% 29.69 in - SW 10.4 mph 23.0 mph N/A   Unknown
8:00 PM 74.3 °F 36.3 °F 25% 29.66 in - WSW 3.5 mph - N/A   Unknown
9:00 PM 70.9 °F 37.2 °F 29% 29.65 in - SW 3.5 mph - N/A   Unknown
10:00 PM 68.4 °F 38.5 °F 33% 29.65 in - WSW 4.6 mph - N/A   Unknown
11:00 PM 65.1 °F 40.3 °F 40% 29.66 in - SW 4.6 mph - N/A   Unknown